| time (UTC) | temp F | wind direction | speed knots | gust knots | rain 1hr in | rain 24hr in | rain mn in | humidity % | barometer mb |
| 20260506190438 | 59 | 334 | 0.0 | 0.0 | 0.00 | 0.00 | 0.00 | 74 | 1007.5 |
| 20260506185938 | 59 | 337 | 0.0 | 0.0 | 0.00 | 0.00 | 0.00 | 78 | 1007.5 |
| 20260506185438 | 60 | 339 | 0.9 | 0.9 | 0.00 | 0.00 | 0.00 | 74 | 1007.5 |
| 20260506184938 | 60 | 337 | 1.7 | 1.7 | 0.00 | 0.00 | 0.00 | 73 | 1007.5 |
| 20260506184438 | 61 | 336 | 0.0 | 0.0 | 0.00 | 0.00 | 0.00 | 75 | 1006.8 |
| 20260506183938 | 61 | 336 | 0.0 | 0.0 | 0.00 | 0.00 | 0.00 | 71 | 1006.8 |
| 20260506183438 | 62 | 336 | 0.0 | 0.0 | 0.00 | 0.00 | 0.00 | 73 | 1006.8 |
| 20260506182938 | 63 | 335 | 0.9 | 0.9 | 0.00 | 0.00 | 0.00 | 70 | 1006.8 |
| 20260506182438 | 63 | 329 | 0.0 | 0.0 | 0.00 | 0.00 | 0.00 | 70 | 1006.8 |
| 20260506181938 | 64 | 327 | 0.9 | 0.9 | 0.00 | 0.00 | 0.00 | 69 | 1006.4 |
| 20260506181438 | 65 | 331 | 0.0 | 0.0 | 0.00 | 0.00 | 0.00 | 63 | 1006.4 |
| 20260506180938 | 65 | 326 | 0.0 | 0.0 | 0.00 | 0.00 | 0.00 | 64 | 1006.4 |
| 20260506180438 | 67 | 325 | 0.0 | 0.0 | 0.00 | 0.00 | 0.00 | 58 | 1006.4 |
| 20260506175938 | 67 | 327 | 0.9 | 0.9 | 0.00 | 0.00 | 0.00 | 62 | 1006.4 |
| 20260506175438 | 68 | 336 | 0.0 | 0.9 | 0.00 | 0.00 | 0.00 | 55 | 1006.4 |
| 20260506174938 | 69 | 327 | 0.0 | 0.0 | 0.00 | 0.00 | 0.00 | 56 | 1006.4 |
| 20260506174438 | 69 | 326 | 0.0 | 0.0 | 0.00 | 0.00 | 0.00 | 54 | 1006.8 |
| 20260506173938 | 69 | 294 | 1.7 | 1.7 | 0.00 | 0.00 | 0.00 | 49 | 1006.8 |
| 20260506173438 | 69 | 336 | 0.0 | 0.9 | 0.00 | 0.00 | 0.00 | 49 | 1006.8 |
| 20260506172938 | 69 | 264 | 1.7 | 2.6 | 0.00 | 0.00 | 0.00 | 47 | 1006.8 |
| 20260506172438 | 69 | 290 | 1.7 | 1.7 | 0.00 | 0.00 | 0.00 | 47 | 1006.8 |
| 20260506171938 | 69 | 320 | 0.9 | 0.9 | 0.00 | 0.00 | 0.00 | 49 | 1006.8 |
| 20260506171438 | 69 | 341 | 0.0 | 0.0 | 0.00 | 0.00 | 0.00 | 49 | 1006.8 |
| 20260506170938 | 69 | 323 | 0.0 | 0.0 | 0.00 | 0.00 | 0.00 | 47 | 1006.8 |
| 20260506170438 | 70 | 317 | 0.9 | 0.9 | 0.00 | 0.00 | 0.00 | 47 | 1006.8 |
| 20260506165938 | 70 | 29 | 4.3 | 5.2 | 0.00 | 0.00 | 0.00 | 46 | 1006.4 |
| 20260506165438 | 70 | 218 | 3.5 | 4.3 | 0.00 | 0.00 | 0.00 | 47 | 1006.4 |
| 20260506164938 | 71 | 29 | 1.7 | 2.6 | 0.00 | 0.00 | 0.00 | 47 | 1006.4 |
| 20260506164438 | 71 | 320 | 2.6 | 4.3 | 0.00 | 0.00 | 0.00 | 43 | 1006.8 |
| 20260506163938 | 71 | 298 | 2.6 | 3.5 | 0.00 | 0.00 | 0.00 | 44 | 1006.8 |
| 20260506163438 | 71 | 287 | 4.3 | 5.2 | 0.00 | 0.00 | 0.00 | 42 | 1006.8 |
| 20260506162938 | 72 | 284 | 3.5 | 3.5 | 0.00 | 0.00 | 0.00 | 41 | 1006.8 |
| 20260506162438 | 73 | 299 | 2.6 | 2.6 | 0.00 | 0.00 | 0.00 | 41 | 1006.8 |
| 20260506161938 | 73 | 283 | 2.6 | 3.5 | 0.00 | 0.00 | 0.00 | 42 | 1006.8 |
| 20260506161438 | 73 | 292 | 7.0 | 9.6 | 0.00 | 0.00 | 0.00 | 39 | 1006.8 |
| 20260506160938 | 74 | 227 | 7.0 | 9.6 | 0.00 | 0.00 | 0.00 | 38 | 1006.4 |
| 20260506160438 | 76 | 237 | 2.6 | 2.6 | 0.00 | 0.00 | 0.00 | 37 | 1006.4 |
| 20260506155938 | 77 | 208 | 3.5 | 7.0 | 0.00 | 0.00 | 0.00 | 36 | 1006.8 |
| 20260506155438 | 79 | 302 | 3.5 | 5.2 | 0.00 | 0.00 | 0.00 | 35 | 1006.8 |
| 20260506154938 | 78 | 318 | 5.2 | 6.1 | 0.00 | 0.00 | 0.00 | 34 | 1006.8 |
| 20260506154438 | 78 | 296 | 2.6 | 5.2 | 0.00 | 0.00 | 0.00 | 34 | 1006.8 |
| 20260506153938 | 77 | 306 | 3.5 | 7.0 | 0.00 | 0.00 | 0.00 | 35 | 1006.8 |
| 20260506153438 | 78 | 293 | 7.8 | 11.3 | 0.00 | 0.00 | 0.00 | 33 | 1006.8 |
| 20260506152938 | 80 | 295 | 2.6 | 3.5 | 0.00 | 0.00 | 0.00 | 32 | 1006.8 |
| 20260506152438 | 81 | 318 | 0.9 | 0.9 | 0.00 | 0.00 | 0.00 | 32 | 1006.8 |
| 20260506151938 | 80 | 274 | 1.7 | 1.7 | 0.00 | 0.00 | 0.00 | 32 | 1006.8 |
| 20260506151438 | 80 | 226 | 2.6 | 3.5 | 0.00 | 0.00 | 0.00 | 32 | 1006.8 |
| 20260506150938 | 80 | 285 | 6.1 | 8.7 | 0.00 | 0.00 | 0.00 | 33 | 1007.5 |
| 20260506150438 | 80 | 265 | 4.3 | 6.1 | 0.00 | 0.00 | 0.00 | 33 | 1007.5 |
| 20260506145938 | 79 | 314 | 1.7 | 2.6 | 0.00 | 0.00 | 0.00 | 36 | 1007.5 |
| 20260506145438 | 80 | 295 | 6.1 | 8.7 | 0.00 | 0.00 | 0.00 | 33 | 1007.5 |
| 20260506144938 | 79 | 295 | 5.2 | 7.0 | 0.00 | 0.00 | 0.00 | 36 | 1007.5 |
| 20260506144438 | 79 | 216 | 4.3 | 8.7 | 0.00 | 0.00 | 0.00 | 34 | 1007.5 |
| 20260506143938 | 78 | 281 | 7.8 | 11.3 | 0.00 | 0.00 | 0.00 | 34 | 1007.5 |
| 20260506143438 | 79 | 258 | 5.2 | 7.0 | 0.00 | 0.00 | 0.00 | 34 | 1007.8 |
| 20260506142938 | 79 | 235 | 8.7 | 9.6 | 0.00 | 0.00 | 0.00 | 33 | 1007.8 |
| 20260506142438 | 80 | 292 | 8.7 | 11.3 | 0.00 | 0.00 | 0.00 | 33 | 1007.8 |
| 20260506141938 | 80 | 281 | 6.1 | 9.6 | 0.00 | 0.00 | 0.00 | 32 | 1007.8 |
| 20260506141438 | 80 | 276 | 5.2 | 7.0 | 0.00 | 0.00 | 0.00 | 33 | 1007.8 |
| 20260506140938 | 80 | 327 | 8.7 | 13.0 | 0.00 | 0.00 | 0.00 | 33 | 1007.8 |
| 20260506140438 | 80 | 267 | 5.2 | 5.2 | 0.00 | 0.00 | 0.00 | 33 | 1007.8 |
| 20260506135938 | 79 | 315 | 10.4 | 14.8 | 0.00 | 0.00 | 0.00 | 34 | 1007.8 |
| 20260506135438 | 80 | 309 | 2.6 | 6.1 | 0.00 | 0.00 | 0.00 | 33 | 1007.8 |
| 20260506134938 | 80 | 233 | 10.4 | 14.8 | 0.00 | 0.00 | 0.00 | 35 | 1007.8 |
| 20260506134438 | 80 | 254 | 9.6 | 13.0 | 0.00 | 0.00 | 0.00 | 34 | 1007.8 |
| 20260506133938 | 79 | 222 | 5.2 | 10.4 | 0.00 | 0.00 | 0.00 | 35 | 1007.8 |
| 20260506133438 | 78 | 268 | 7.0 | 7.8 | 0.00 | 0.00 | 0.00 | 36 | 1007.8 |
| 20260506132938 | 80 | 295 | 2.6 | 6.1 | 0.00 | 0.00 | 0.00 | 36 | 1007.8 |
| 20260506132438 | 80 | 216 | 3.5 | 5.2 | 0.00 | 0.00 | 0.00 | 38 | 1007.8 |
| 20260506131938 | 80 | 308 | 7.0 | 7.8 | 0.00 | 0.00 | 0.00 | 36 | 1007.8 |
| 20260506131438 | 80 | 191 | 8.7 | 11.3 | 0.00 | 0.00 | 0.00 | 37 | 1007.8 |
| 20260506130938 | 79 | 163 | 3.5 | 7.8 | 0.00 | 0.00 | 0.00 | 37 | 1008.1 |
| 20260506130438 | 78 | 310 | 13.0 | 16.5 | 0.00 | 0.00 | 0.00 | 37 | 1008.1 |
| 20260506125938 | 78 | 217 | 10.4 | 14.8 | 0.00 | 0.00 | 0.00 | 37 | 1008.1 |
| 20260506125438 | 78 | 157 | 5.2 | 7.8 | 0.00 | 0.00 | 0.00 | 37 | 1008.1 |
| 20260506124938 | 79 | 216 | 7.8 | 11.3 | 0.00 | 0.00 | 0.00 | 36 | 1008.1 |
| 20260506124438 | 80 | 278 | 5.2 | 6.1 | 0.00 | 0.00 | 0.00 | 36 | 1008.1 |
| 20260506123938 | 79 | 267 | 7.0 | 10.4 | 0.00 | 0.00 | 0.00 | 36 | 1008.1 |
| 20260506123438 | 78 | 214 | 9.6 | 12.2 | 0.00 | 0.00 | 0.00 | 36 | 1008.1 |
| 20260506122938 | 79 | 299 | 7.8 | 11.3 | 0.00 | 0.00 | 0.00 | 36 | 1008.1 |
| 20260506122438 | 78 | 295 | 7.0 | 10.4 | 0.00 | 0.00 | 0.00 | 37 | 1008.1 |
| 20260506121938 | 79 | 244 | 7.0 | 7.8 | 0.00 | 0.00 | 0.00 | 37 | 1008.1 |
| 20260506121438 | 80 | 242 | 7.0 | 9.6 | 0.00 | 0.00 | 0.00 | 35 | 1008.1 |
| 20260506120938 | 79 | 294 | 6.1 | 12.2 | 0.00 | 0.00 | 0.00 | 36 | 1008.1 |
| 20260506120438 | 79 | 227 | 5.2 | 9.6 | 0.00 | 0.00 | 0.00 | 36 | 1008.1 |
| 20260506115938 | 78 | 258 | 9.6 | 13.0 | 0.00 | 0.00 | 0.00 | 36 | 1008.1 |
| 20260506115438 | 79 | 241 | 8.7 | 14.8 | 0.00 | 0.00 | 0.00 | 35 | 1008.1 |
| 20260506114938 | 80 | 252 | 5.2 | 7.8 | 0.00 | 0.00 | 0.00 | 37 | 1008.1 |
| 20260506114438 | 79 | 292 | 5.2 | 7.0 | 0.00 | 0.00 | 0.00 | 37 | 1007.8 |
| 20260506113938 | 80 | 176 | 8.7 | 10.4 | 0.00 | 0.00 | 0.00 | 37 | 1007.8 |
| 20260506113438 | 79 | 246 | 6.1 | 8.7 | 0.00 | 0.00 | 0.00 | 36 | 1008.1 |
| 20260506112938 | 79 | 274 | 11.3 | 14.8 | 0.00 | 0.00 | 0.00 | 38 | 1008.1 |
| 20260506112438 | 78 | 282 | 8.7 | 10.4 | 0.00 | 0.00 | 0.00 | 36 | 1008.1 |
| 20260506111938 | 78 | 207 | 11.3 | 14.8 | 0.00 | 0.00 | 0.00 | 37 | 1008.1 |
| 20260506111438 | 78 | 307 | 14.8 | 19.1 | 0.00 | 0.00 | 0.00 | 39 | 1008.1 |
| 20260506110938 | 78 | 280 | 3.5 | 6.1 | 0.00 | 0.00 | 0.00 | 37 | 1008.1 |
| 20260506110438 | 78 | 271 | 8.7 | 8.7 | 0.00 | 0.00 | 0.00 | 36 | 1008.1 |
| 20260506105938 | 78 | 276 | 9.6 | 14.8 | 0.00 | 0.00 | 0.00 | 38 | 1008.1 |
| 20260506105438 | 78 | 284 | 7.8 | 7.8 | 0.00 | 0.00 | 0.00 | 39 | 1008.1 |
| 20260506104938 | 76 | 184 | 7.0 | 7.8 | 0.00 | 0.00 | 0.00 | 41 | 1008.1 |
| 20260506104438 | 76 | 266 | 8.7 | 13.9 | 0.00 | 0.00 | 0.00 | 41 | 1008.5 |
| 20260506103938 | 77 | 335 | 1.7 | 1.7 | 0.00 | 0.00 | 0.00 | 43 | 1008.5 |
| 20260506103438 | 75 | 309 | 1.7 | 3.5 | 0.00 | 0.00 | 0.00 | 44 | 1008.5 |
| 20260506102937 | 75 | 282 | 0.9 | 3.5 | 0.00 | 0.00 | 0.00 | 43 | 1008.5 |
| 20260506101937 | 76 | 323 | 5.2 | 8.7 | 0.00 | 0.00 | 0.00 | 42 | 1008.1 |
| 20260506101438 | 76 | 271 | 5.2 | 7.8 | 0.00 | 0.00 | 0.00 | 41 | 1008.1 |
| 20260506100938 | 78 | 306 | 3.5 | 7.0 | 0.00 | 0.00 | 0.00 | 41 | 1008.1 |
| 20260506100438 | 77 | 288 | 11.3 | 13.9 | 0.00 | 0.00 | 0.00 | 43 | 1008.1 |
| 20260506095938 | 76 | 230 | 8.7 | 9.6 | 0.00 | 0.00 | 0.00 | 42 | 1008.1 |
| 20260506095438 | 76 | 259 | 2.6 | 4.3 | 0.00 | 0.00 | 0.00 | 43 | 1008.1 |
| 20260506094938 | 76 | 272 | 9.6 | 12.2 | 0.00 | 0.00 | 0.00 | 43 | 1008.1 |
| 20260506094438 | 75 | 284 | 7.8 | 11.3 | 0.00 | 0.00 | 0.00 | 45 | 1008.1 |
| 20260506093938 | 74 | 180 | 20.9 | 24.3 | 0.00 | 0.00 | 0.00 | 46 | 1008.1 |
| 20260506093438 | 74 | 194 | 9.6 | 13.0 | 0.00 | 0.00 | 0.00 | 46 | 1008.1 |
| 20260506092938 | 74 | 251 | 6.1 | 11.3 | 0.00 | 0.00 | 0.00 | 45 | 1008.1 |
| 20260506092438 | 75 | 245 | 6.1 | 7.0 | 0.00 | 0.00 | 0.00 | 46 | 1008.1 |
| 20260506091938 | 75 | 291 | 7.0 | 7.8 | 0.00 | 0.00 | 0.00 | 46 | 1008.1 |
| 20260506091438 | 74 | 255 | 10.4 | 11.3 | 0.00 | 0.00 | 0.00 | 46 | 1008.1 |
| 20260506090938 | 74 | 279 | 6.1 | 11.3 | 0.00 | 0.00 | 0.00 | 47 | 1008.1 |
| 20260506090438 | 74 | 281 | 8.7 | 9.6 | 0.00 | 0.00 | 0.00 | 46 | 1008.1 |
| 20260506085938 | 74 | 249 | 10.4 | 13.9 | 0.00 | 0.00 | 0.00 | 46 | 1008.1 |
| 20260506085438 | 74 | 290 | 5.2 | 7.0 | 0.00 | 0.00 | 0.00 | 46 | 1008.1 |
| 20260506084938 | 74 | 258 | 6.1 | 9.6 | 0.00 | 0.00 | 0.00 | 49 | 1008.1 |
| 20260506084438 | 73 | 297 | 6.1 | 8.7 | 0.00 | 0.00 | 0.00 | 47 | 1008.1 |
| 20260506083938 | 73 | 315 | 7.8 | 11.3 | 0.00 | 0.00 | 0.00 | 49 | 1008.1 |
| 20260506083437 | 74 | 264 | 5.2 | 7.8 | 0.00 | 0.00 | 0.00 | 47 | 1008.1 |
| 20260506082938 | 73 | 338 | 5.2 | 8.7 | 0.00 | 0.00 | 0.00 | 48 | 1008.1 |
| 20260506082437 | 73 | 308 | 2.6 | 4.3 | 0.00 | 0.00 | 0.00 | 48 | 1007.8 |
| 20260506081937 | 72 | 277 | 3.5 | 4.3 | 0.00 | 0.00 | 0.00 | 47 | 1007.8 |
| 20260506081437 | 71 | 309 | 6.1 | 7.8 | 0.00 | 0.00 | 0.00 | 50 | 1007.8 |
| 20260506080937 | 71 | 226 | 7.8 | 13.0 | 0.00 | 0.00 | 0.00 | 50 | 1007.8 |
| 20260506080438 | 71 | 307 | 6.1 | 13.0 | 0.00 | 0.00 | 0.00 | 51 | 1007.8 |
| 20260506073437 | 69 | 260 | 9.6 | 14.8 | 0.00 | 0.00 | 0.00 | 52 | 1007.5 |
| 20260506072937 | 69 | 219 | 7.8 | 9.6 | 0.00 | 0.00 | 0.00 | 50 | 1007.5 |
| 20260506072437 | 69 | 206 | 11.3 | 14.8 | 0.00 | 0.00 | 0.00 | 52 | 1007.5 |
| 20260506071937 | 69 | 321 | 9.6 | 9.6 | 0.00 | 0.00 | 0.00 | 52 | 1007.5 |
| 20260506071437 | 68 | 274 | 20.0 | 26.9 | 0.00 | 0.00 | 0.00 | 52 | 1007.5 |
| 20260506070437 | 68 | 244 | 13.0 | 18.2 | 0.00 | 0.00 | 0.00 | 53 | 1007.8 |
| 20260506062437 | 67 | 199 | 12.2 | 14.8 | 0.00 | 0.00 | 0.00 | 53 | 1007.5 |
| 20260506061937 | 68 | 254 | 4.3 | 5.2 | 0.00 | 0.00 | 0.00 | 53 | 1007.5 |
| 20260506061438 | 68 | 282 | 3.5 | 5.2 | 0.00 | 0.00 | 0.00 | 53 | 1007.5 |
| 20260506060937 | 67 | 308 | 3.5 | 4.3 | 0.00 | 0.00 | 0.00 | 53 | 1007.5 |
| 20260506060437 | 67 | 275 | 2.6 | 4.3 | 0.00 | 0.00 | 0.00 | 52 | 1007.5 |
| 20260506050937 | 65 | 289 | 3.5 | 5.2 | 0.00 | 0.00 | 0.00 | 58 | 1006.8 |
| 20260506050437 | 65 | 295 | 0.0 | 0.9 | 0.00 | 0.00 | 0.00 | 59 | 1006.8 |
| 20260506044937 | 64 | 305 | 2.6 | 5.2 | 0.00 | 0.00 | 0.00 | 59 | 1006.8 |
| 20260506044437 | 64 | 221 | 5.2 | 6.1 | 0.00 | 0.00 | 0.00 | 58 | 1006.8 |
| 20260506043937 | 64 | 317 | 0.9 | 1.7 | 0.00 | 0.00 | 0.00 | 59 | 1006.8 |
| 20260506043437 | 63 | 242 | 2.6 | 3.5 | 0.00 | 0.00 | 0.00 | 59 | 1006.8 |
| 20260506042937 | 62 | 215 | 3.5 | 4.3 | 0.00 | 0.00 | 0.00 | 61 | 1006.8 |
| 20260506042437 | 62 | 206 | 3.5 | 4.3 | 0.00 | 0.00 | 0.00 | 61 | 1006.8 |
| 20260506041937 | 60 | 266 | 1.7 | 1.7 | 0.00 | 0.00 | 0.00 | 64 | 1006.8 |
| 20260506041437 | 60 | 271 | 1.7 | 1.7 | 0.00 | 0.00 | 0.00 | 64 | 1006.8 |
| 20260506040937 | 59 | 309 | 1.7 | 1.7 | 0.00 | 0.00 | 0.00 | 65 | 1006.8 |
| 20260506040437 | 58 | 328 | 0.0 | 0.0 | 0.00 | 0.00 | 0.00 | 66 | 1006.8 |
| 20260506035937 | 60 | 308 | 2.6 | 3.5 | 0.00 | 0.00 | 0.00 | 63 | 1006.8 |
| 20260506035437 | 59 | 310 | 0.9 | 3.5 | 0.00 | 0.00 | 0.00 | 65 | 1006.8 |
| 20260506034937 | 58 | 300 | 1.7 | 1.7 | 0.00 | 0.00 | 0.00 | 66 | 1006.8 |
| 20260506034438 | 57 | 321 | 0.0 | 0.9 | 0.00 | 0.00 | 0.00 | 69 | 1006.4 |
| 20260506033937 | 56 | 300 | 0.9 | 0.9 | 0.00 | 0.00 | 0.00 | 72 | 1006.4 |
| 20260506033437 | 54 | 327 | 0.0 | 0.0 | 0.00 | 0.00 | 0.00 | 74 | 1006.4 |
| 20260506032937 | 53 | 326 | 0.0 | 0.0 | 0.00 | 0.00 | 0.00 | 77 | 1006.4 |
| 20260506032437 | 52 | 314 | 0.9 | 0.9 | 0.00 | 0.00 | 0.00 | 77 | 1006.4 |
| 20260506031937 | 51 | 272 | 3.5 | 5.2 | 0.00 | 0.00 | 0.00 | 80 | 1006.4 |
| 20260506031437 | 49 | 349 | 0.9 | 0.9 | 0.00 | 0.00 | 0.00 | 84 | 1006.4 |
| 20260506030938 | 48 | 343 | 0.9 | 1.7 | 0.00 | 0.00 | 0.00 | 88 | 1006.8 |
| 20260506030437 | 47 | 348 | 0.0 | 0.9 | 0.00 | 0.00 | 0.00 | 91 | 1006.8 |
| 20260506025937 | 47 | 344 | 0.0 | 0.0 | 0.00 | 0.00 | 0.00 | 92 | 1006.8 |
| 20260506025437 | 47 | 344 | 0.0 | 0.9 | 0.00 | 0.00 | 0.00 | 93 | 1006.8 |
| 20260506024937 | 47 | 338 | 0.0 | 0.0 | 0.00 | 0.00 | 0.00 | 93 | 1006.8 |
| 20260506024437 | 47 | 338 | 0.9 | 1.7 | 0.00 | 0.00 | 0.00 | 93 | 1006.8 |
| 20260506023937 | 47 | 334 | 0.0 | 0.0 | 0.00 | 0.00 | 0.00 | 93 | 1006.8 |
| 20260506023437 | 46 | 334 | 0.0 | 0.0 | 0.00 | 0.00 | 0.00 | 93 | 1006.4 |
| 20260506022937 | 47 | 334 | 0.0 | 0.0 | 0.00 | 0.00 | 0.00 | 95 | 1006.4 |
| 20260506022437 | 46 | 330 | 0.0 | 0.0 | 0.00 | 0.00 | 0.00 | 94 | 1006.4 |
| 20260506021937 | 46 | 328 | 0.0 | 0.0 | 0.00 | 0.00 | 0.00 | 93 | 1006.4 |
| 20260506021437 | 46 | 333 | 0.0 | 0.0 | 0.00 | 0.00 | 0.00 | 93 | 1006.4 |
| 20260506020937 | 46 | 333 | 0.0 | 0.0 | 0.00 | 0.00 | 0.00 | 94 | 1006.4 |
| 20260506020437 | 47 | 333 | 0.0 | 0.0 | 0.00 | 0.00 | 0.00 | 93 | 1006.4 |
| 20260506015937 | 47 | 333 | 0.0 | 0.0 | 0.00 | 0.00 | 0.00 | 94 | 1006.4 |
| 20260506015437 | 47 | 337 | 0.0 | 0.0 | 0.00 | 0.00 | 0.00 | 94 | 1006.4 |
| 20260506014937 | 47 | 337 | 0.0 | 0.0 | 0.00 | 0.00 | 0.00 | 93 | 1006.4 |
| 20260506014437 | 47 | 337 | 0.0 | 0.0 | 0.00 | 0.00 | 0.00 | 92 | 1006.8 |
| 20260506013937 | 47 | 337 | 0.0 | 0.0 | 0.00 | 0.00 | 0.00 | 89 | 1006.8 |
| 20260506013437 | 48 | 338 | 0.0 | 0.0 | 0.00 | 0.00 | 0.00 | 88 | 1006.8 |
| 20260506012937 | 48 | 336 | 0.0 | 0.0 | 0.00 | 0.00 | 0.00 | 87 | 1006.8 |
| 20260506012437 | 49 | 340 | 0.0 | 0.0 | 0.00 | 0.00 | 0.00 | 87 | 1006.8 |
| 20260506011937 | 48 | 318 | 0.9 | 1.7 | 0.00 | 0.00 | 0.00 | 88 | 1006.8 |
| 20260506011438 | 48 | 324 | 0.0 | 0.9 | 0.00 | 0.00 | 0.00 | 88 | 1006.8 |
| 20260506010937 | 49 | 316 | 0.9 | 1.7 | 0.00 | 0.00 | 0.00 | 90 | 1006.8 |
| 20260506010437 | 49 | 352 | 0.9 | 0.9 | 0.00 | 0.00 | 0.00 | 89 | 1006.8 |
| 20260506005937 | 49 | 352 | 0.9 | 0.9 | 0.00 | 0.00 | 0.00 | 86 | 1006.8 |
| 20260506005437 | 48 | 341 | 0.0 | 0.0 | 0.00 | 0.00 | 0.00 | 89 | 1006.8 |
| 20260506004937 | 49 | 341 | 0.0 | 0.0 | 0.00 | 0.00 | 0.00 | 87 | 1006.8 |
| 20260506004437 | 49 | 341 | 0.0 | 0.0 | 0.00 | 0.00 | 0.00 | 87 | 1006.8 |
| 20260506003937 | 49 | 333 | 0.0 | 0.0 | 0.00 | 0.00 | 0.00 | 89 | 1006.8 |
| 20260506003437 | 49 | 333 | 0.0 | 0.0 | 0.00 | 0.00 | 0.00 | 88 | 1006.8 |
| 20260506002937 | 50 | 333 | 0.0 | 0.0 | 0.00 | 0.00 | 0.00 | 86 | 1006.8 |
| 20260506002437 | 50 | 332 | 0.0 | 0.0 | 0.00 | 0.00 | 0.00 | 85 | 1006.8 |
| 20260506001937 | 51 | 335 | 0.0 | 0.0 | 0.00 | 0.00 | 0.00 | 86 | 1006.8 |
| 20260506001437 | 51 | 339 | 0.0 | 0.0 | 0.00 | 0.00 | 0.00 | 82 | 1006.8 |
| 20260506000937 | 51 | 339 | 0.0 | 0.0 | 0.00 | 0.00 | 0.00 | 79 | 1006.8 |
| 20260506000438 | 52 | 339 | 0.0 | 0.0 | 0.00 | 0.00 | 0.00 | 78 | 1006.8 |
| 20260505235938 | 52 | 347 | 0.0 | 0.9 | 0.00 | 0.00 | 0.00 | 76 | 1007.5 |
| 20260505235437 | 52 | 335 | 0.0 | 0.9 | 0.00 | 0.00 | 0.00 | 79 | 1007.5 |
| 20260505234937 | 53 | 342 | 0.0 | 0.9 | 0.00 | 0.00 | 0.00 | 81 | 1007.5 |
| 20260505234437 | 53 | 341 | 0.0 | 0.0 | 0.00 | 0.00 | 0.00 | 77 | 1007.5 |
| 20260505233937 | 53 | 339 | 0.0 | 0.0 | 0.00 | 0.00 | 0.00 | 79 | 1007.5 |
| 20260505233437 | 53 | 341 | 0.0 | 0.0 | 0.00 | 0.00 | 0.00 | 79 | 1007.5 |
| 20260505232937 | 53 | 341 | 0.0 | 0.0 | 0.00 | 0.00 | 0.00 | 79 | 1007.5 |
| 20260505232437 | 53 | 343 | 0.0 | 0.0 | 0.00 | 0.00 | 0.00 | 77 | 1007.8 |
| 20260505231937 | 53 | 329 | 0.0 | 0.0 | 0.00 | 0.00 | 0.00 | 79 | 1007.8 |
| 20260505231437 | 52 | 338 | 0.0 | 0.0 | 0.00 | 0.00 | 0.00 | 79 | 1007.8 |
| 20260505230937 | 52 | 339 | 0.0 | 0.0 | 0.00 | 0.00 | 0.00 | 81 | 1007.8 |
| 20260505230437 | 52 | 342 | 0.0 | 0.9 | 0.00 | 0.00 | 0.00 | 82 | 1007.8 |
| 20260505225937 | 51 | 329 | 0.0 | 0.0 | 0.00 | 0.00 | 0.00 | 81 | 1007.8 |
| 20260505225437 | 51 | 345 | 0.0 | 0.0 | 0.00 | 0.00 | 0.00 | 79 | 1007.8 |
| 20260505224937 | 51 | 329 | 0.0 | 0.0 | 0.00 | 0.00 | 0.00 | 82 | 1007.8 |
| 20260505224437 | 51 | 329 | 0.0 | 0.0 | 0.00 | 0.00 | 0.00 | 79 | 1007.8 |
| 20260505223937 | 51 | 342 | 0.0 | 0.0 | 0.00 | 0.00 | 0.00 | 78 | 1007.8 |
| 20260505223437 | 52 | 345 | 0.0 | 0.9 | 0.00 | 0.00 | 0.00 | 79 | 1008.1 |
| 20260505222937 | 52 | 25 | 1.7 | 1.7 | 0.00 | 0.00 | 0.00 | 78 | 1008.1 |
| 20260505222437 | 52 | 22 | 2.6 | 2.6 | 0.00 | 0.00 | 0.00 | 75 | 1008.1 |
| 20260505221937 | 51 | 336 | 0.9 | 1.7 | 0.00 | 0.00 | 0.00 | 77 | 1008.1 |
| 20260505221437 | 51 | 332 | 0.0 | 0.0 | 0.00 | 0.00 | 0.00 | 77 | 1008.1 |
| 20260505220937 | 51 | 318 | 0.0 | 0.0 | 0.00 | 0.00 | 0.00 | 79 | 1008.1 |
| 20260505220437 | 51 | 329 | 0.0 | 0.0 | 0.00 | 0.00 | 0.00 | 79 | 1008.1 |
| 20260505215937 | 51 | 329 | 0.0 | 0.0 | 0.00 | 0.00 | 0.00 | 80 | 1008.5 |
| 20260505215437 | 52 | 333 | 0.0 | 0.0 | 0.00 | 0.00 | 0.00 | 78 | 1008.5 |
| 20260505214937 | 52 | 334 | 0.0 | 0.0 | 0.00 | 0.00 | 0.00 | 75 | 1008.5 |
| 20260505214437 | 53 | 344 | 0.0 | 0.0 | 0.00 | 0.00 | 0.00 | 72 | 1008.1 |
| 20260505213937 | 53 | 338 | 0.0 | 0.0 | 0.00 | 0.00 | 0.00 | 69 | 1008.1 |
| 20260505213437 | 53 | 338 | 0.0 | 0.0 | 0.00 | 0.00 | 0.00 | 70 | 1008.1 |
| 20260505212937 | 53 | 336 | 0.0 | 0.0 | 0.00 | 0.00 | 0.00 | 69 | 1008.1 |
| 20260505212437 | 53 | 345 | 0.0 | 0.0 | 0.00 | 0.00 | 0.00 | 66 | 1008.5 |
| 20260505211937 | 53 | 335 | 0.0 | 0.0 | 0.00 | 0.00 | 0.00 | 74 | 1008.5 |
| 20260505211437 | 54 | 336 | 0.9 | 0.9 | 0.00 | 0.00 | 0.00 | 68 | 1008.5 |
| 20260505210937 | 54 | 339 | 0.0 | 0.0 | 0.00 | 0.00 | 0.00 | 65 | 1008.5 |
| 20260505210437 | 54 | 339 | 0.0 | 0.0 | 0.00 | 0.00 | 0.00 | 72 | 1008.5 |
| 20260505205937 | 54 | 339 | 0.0 | 0.9 | 0.00 | 0.00 | 0.00 | 65 | 1008.5 |
| 20260505205437 | 55 | 344 | 0.9 | 1.7 | 0.00 | 0.00 | 0.00 | 63 | 1008.5 |
| 20260505204937 | 55 | 338 | 0.9 | 0.9 | 0.00 | 0.00 | 0.00 | 66 | 1008.5 |
| 20260505204437 | 55 | 348 | 0.9 | 0.9 | 0.00 | 0.00 | 0.00 | 63 | 1008.5 |
| 20260505203937 | 55 | 347 | 1.7 | 2.6 | 0.00 | 0.00 | 0.00 | 61 | 1008.5 |
| 20260505203437 | 55 | 337 | 0.0 | 0.9 | 0.00 | 0.00 | 0.00 | 65 | 1008.5 |
| 20260505202937 | 55 | 333 | 0.0 | 0.9 | 0.00 | 0.00 | 0.00 | 61 | 1008.5 |
| 20260505202437 | 55 | 335 | 0.9 | 1.7 | 0.00 | 0.00 | 0.00 | 67 | 1008.5 |
| 20260505201937 | 55 | 338 | 0.0 | 0.0 | 0.00 | 0.00 | 0.00 | 60 | 1008.5 |
| 20260505201437 | 56 | 338 | 0.9 | 0.9 | 0.00 | 0.00 | 0.00 | 61 | 1008.5 |
| 20260505200937 | 56 | 330 | 0.9 | 0.9 | 0.00 | 0.00 | 0.00 | 59 | 1008.5 |
| 20260505200437 | 56 | 315 | 0.9 | 0.9 | 0.00 | 0.00 | 0.00 | 67 | 1008.5 |
| 20260505195937 | 56 | 333 | 0.0 | 0.0 | 0.00 | 0.00 | 0.00 | 62 | 1008.5 |
| 20260505192937 | 58 | 332 | 0.9 | 0.9 | 0.00 | 0.00 | 0.00 | 62 | 1008.1 |